Location: ?????????
(53.2086°N, 54.0693°E)
Time: 07:40:40
(UTC+00:00)

Envisat - Pass Details

Date: 08 December 2019
Orbit: 764 x 766 km, 98.1° (Epoch: 28 January)

Event Time Altitude Azimuth Distance (km) Brightness Sun altitude
Rises 13:51:43 0° 157° (SSE) 3,224 6.2 -14.6°
Reaches altitude 10° 13:54:00 10° 156° (SSE) 2,302 5.4 -14.9°
Maximum altitude 13:59:04 75° 72° (ENE) 799 2.9 -15.6°
Drops below altitude 10° 14:04:10 10° 348° (NNW) 2,319 5.4 -16.4°
Sets 14:06:29 0° 347° (NNW) 3,249 6.2 -16.7°
